Regional Weather Roundup
Issued by NWS

Home | Current Version | Previous Version | Text Only | Print | Product List | Glossary On
Versions: 1 2 3 4 5 6 7 8 9 10 11 12 13 14 15 16 17 18 19 20 21 22 23 24 25 26 27 28 29 30 31 32 33 34 35 36 37 38 39 40 41 42 43 44 45 46 47 48 49 50
000
ASUS43 KDTX 211301
RWRMI
MICHIGAN HOURLY REGIONAL WEATHER ROUNDUP
NATIONAL WEATHER SERVICE DETROIT/PONTIAC MI
900 AM EDT TUE OCT 21 2014

NOTE: "FAIR" INDICATES FEW OR NO CLOUDS BELOW 12,000 FEET WITH NO
SIGNIFICANT WEATHER AND/OR OBSTRUCTION TO VISIBILITY.

MIZ047>049-052>055-059>063-066>070-074>076-081>083-211400-
SOUTHEAST LOWER MICHIGAN

CITY           SKY/WX    TMP DP  RH WIND       PRES   REMARKS
ADRIAN         CLOUDY    47  44  90 N13       30.00R
ALMA           CLOUDY    46  40  81 N8        30.06R
ANN ARBOR      CLOUDY    47  43  86 N8        29.98R
BAD AXE        CLOUDY    44  41  89 N13G21    30.01R
CARO           CLOUDY    46  40  82 N10G17    30.02R
DETROIT CITY   CLOUDY    50  42  74 N13       29.98R
DETROIT        LGT RAIN  48  45  89 NW9       29.98R
FLINT          CLOUDY    47  43  86 N8        30.02R
GROSSE ILE     CLOUDY    48  45  87 NW9       29.96R
HILLSDALE      CLOUDY    46  46 100 NW7       30.01R FOG
HOWELL         CLOUDY    45  44  95 NW7       30.00R

CITY           SKY/WX    TMP DP  RH WIND       PRES   REMARKS
JACKSON        CLOUDY    45  44  97 N6        30.01R FOG
LAMBERTVILLE   CLOUDY    50  43  76 NW5       29.98R
LANSING        LGT RAIN  46  42  86 N6        30.04R
LAPEER         CLOUDY    45  41  85 N8        30.00R
MASON          CLOUDY    44  42  92 N7        30.02R
MONROE         CLOUDY    48  45  87 N10       29.96R
MT. CLEMENS    PTSUNNY   47  44  91 N16       29.94R
PONTIAC        CLOUDY    45  42  89 N14       29.98R
PORT HOPE        N/A     46  40  79 N15G29    29.99R
PORT HURON     CLOUDY    46  41  81 NW9G20    29.96R
TRI CITIES     CLOUDY    47  40  76 N13       30.05R
TROY           CLOUDY    48  42  79 N10G17    30.00R
SAGINAW HB     CLOUDY    46  41  81 N10       30.03R
$$
MIZ043>046-050>051-056>058-064>065-071>073-077>080-211400-
SOUTHWEST LOWER MICHIGAN

CITY           SKY/WX    TMP DP  RH WIND       PRES   REMARKS
BATTLE CREEK   CLOUDY    46  43  89 N10       30.04R
BENTON HARBOR  LGT RAIN  48  45  89 VRB6      30.06R FOG
BIG RAPIDS     CLOUDY    45  44  96 N6        30.07R
COLDWATER      CLOUDY    46  45  95 NW7       30.02R
FREMONT        CLOUDY    46  43  90 N9        30.07R
HOLLAND        CLOUDY    49  44  83 N5        30.08R
GRAND RAPIDS   CLOUDY    47  44  90 N10       30.06R FOG
IONIA          CLOUDY    46  44  92 N6        30.04R
KALAMAZOO      LGT RAIN  46  43  89 N10       30.05R
LUDINGTON      CLOUDY    47  43  87 N7        30.11R
MARSHALL       LGT RAIN  44  43  95 NW5       30.02R
MOUNT PLEASANT CLOUDY    45  39  79 N7        30.06R
MUSKEGON       LGT RAIN  48  43  82 N8        30.09R
SOUTH HAVEN    CLOUDY    48  45  88 NE9       30.06R
$$
MIZ016>042-211400-
NORTHERN LOWER MICHIGAN

CITY           SKY/WX    TMP DP  RH WIND       PRES   REMARKS
ALPENA         MOCLDY    42  32  67 NE17      30.09R
BEAVER ISLAND  CLOUDY    43  37  80 NE8       30.16R
BELLAIRE       CLOUDY    44  35  70 N6        30.13R
CADILLAC       CLOUDY    40  39  95 N6        30.08R
CHARLEVOIX     CLOUDY    44  37  76 NE10      30.17R
FRANKFORT      CLOUDY    47  38  72 N8        30.12R
GAYLORD        CLOUDY    40  34  79 VRB7      30.10R
GRAYLING       CLOUDY    41  37  86 N12       30.10R
HARBOR SPRINGS CLOUDY    42  34  72 N10G16    30.14R
HOUGHTON LAKE  CLOUDY    41  38  89 N8        30.08R
MANISTEE       CLOUDY    46  37  71 NE6       30.12R
OSCODA         CLOUDY    44  37  77 N16G22    30.05R
PELLSTON       PTCLDY    41  33  73 N12       30.15R
ROGERS CITY    MOCLDY    41  36  81 N8G16     30.12R
TRAVERSE CITY  CLOUDY    46  37  71 N10       30.11R
$$
MIZ007>008-015-211400-
EASTERN UPPER MICHIGAN

CITY           SKY/WX    TMP DP  RH WIND       PRES   REMARKS
KINROSS        CLEAR     37  32  81 NE10      30.16R WCI  30
MACKINAC ISLAN CLEAR     40  33  75 NE14      30.15R WCI  32
NEWBERRY       CLEAR     35  33  92 N5        30.17R WCI  31
S. S. MARIE    CLEAR     36  28  73 N7        30.17R WCI  30
$$
MIZ004>006-011>014-085-211400-
CENTRAL UPPER MICHIGAN

CITY           SKY/WX    TMP DP  RH WIND       PRES   REMARKS
MANISTIQUE     CLEAR     38  35  88 N8        30.18R WCI  32
ESCANABA       CLOUDY    43  34  70 N10       30.19R
MENOMINEE      CLOUDY    43  34  70 NE15G21   30.19R
SAWYER-GWINN   CLOUDY    37  34  87 N8        30.20R WCI  31
$$
MIZ001>003-009>011-084-211400-
WESTERN UPPER MICHIGAN

CITY           SKY/WX    TMP DP  RH WIND       PRES   REMARKS
IRON MOUNTAIN  CLOUDY    40  35  83 N9        30.20R WCI  34
HOUGHTON       CLOUDY    38  31  76 NE3       30.24R
COPPER HARBOR    N/A     41  34  76 VRB6      30.24R
IRONWOOD       CLOUDY    37  36  93 E6        30.21R WCI  33
$$

ABBREVIATIONS USED IN REMARKS
   TC - TEMPERATURE IN CELSIUS
  WCI - WIND CHILL INDEX
   HX - HEAT INDEX
  VSB - VISIBILITY



USA.gov is the U.S. government's official web portal to all federal, state and local government web resources and services.